Weather History for Monroe, MI

Change the Weather History Date:

Friday, November 19, 2010

  Actual Average Record
Temperature  
Mean Temperature 35 °F -  
Max Temperature 46 °F 46 °F 70 °F (1941)
Min Temperature 24 °F 31 °F 18 °F (1951)
Degree Days  
Heating Degree Days 30    
Moisture  
Dew Point 31 °F    
Average Humidity 82    
Maximum Humidity 100    
Minimum Humidity 53    
Precipitation  
Precipitation 0.00 in - - ()
Sea Level Pressure  
Sea Level Pressure 30.19 in    
Wind  
Wind Speed 4 mph (SSW)    
Max Wind Speed 20 mph    
Max Gust Speed 26 mph    
Visibility 8 miles    
Events      
Averages and records for this station are not official NWS values.
T = Trace of Precipitation, MM = Missing Value Source: NWS Daily Summary

Daily Weather History Graph

Daily Weather History Graph

Search for Another Location

Airport:

Trip Planner

Search our weather history database for the weather conditions in past years. The results will help you decide how hot, cold, wet, or windy it might be!

Date:

Astronomy

Nov. 19, 2010 Rise Set
Actual Time 7:28 AM EST 5:09 PM EST
Civil Twilight 6:58 AM EST 5:39 PM EST
Nautical Twilight 6:24 AM EST 6:13 PM EST
Astronomical Twilight 5:50 AM EST 6:46 PM EST
Moon 3:40 PM EST (11/19) 5:24 AM EST (11/19)
Length of Visible Light 10h 41m
Length of Day
9h 41m
Waxing Gibbous, 96% of the Moon is Illuminated
Nov 19
Waxing Gibbous
Nov 21
Full
Nov 28
Last Quarter
Dec 5
New
Dec 13
First Quarter

Hourly Weather History & Observations

Time (EST) Temp. Windchill Dew Point Humidity Pressure Visibility Wind Dir Wind Speed Gust Speed Precip Events Conditions
12:13 AM 33.8 °F - 30.2 °F 87% 30.27 in 10.0 mi Calm Calm - N/A   Clear
12:33 AM 32.0 °F - 30.2 °F 93% 30.27 in 10.0 mi Calm Calm - N/A   Clear
12:53 AM 32.0 °F 28.7 °F 30.2 °F 93% 30.28 in 10.0 mi WNW 3.5 mph - N/A   Clear
1:14 AM 30.2 °F 26.7 °F 28.4 °F 93% 30.28 in 10.0 mi West 3.5 mph - N/A   Clear
1:33 AM 30.2 °F - 30.2 °F 100% 30.27 in 10.0 mi Calm Calm - N/A   Clear
1:54 AM 30.2 °F - 30.2 °F 100% 30.26 in 10.0 mi Calm Calm - N/A   Clear
2:13 AM 30.2 °F - 30.2 °F 100% 30.26 in 10.0 mi Calm Calm - N/A   Clear
2:33 AM 28.4 °F - 28.4 °F 100% 30.27 in 10.0 mi Calm Calm - N/A   Clear
2:54 AM 28.4 °F - 28.4 °F 100% 30.27 in 10.0 mi Calm Calm - N/A   Clear
3:13 AM 28.4 °F - 28.4 °F 100% 30.28 in 10.0 mi Calm Calm - N/A   Clear
3:33 AM 28.4 °F - 28.4 °F 100% 30.26 in 10.0 mi Calm Calm - N/A   Clear
3:53 AM 26.6 °F - 26.6 °F 100% 30.26 in 10.0 mi Calm Calm - N/A   Clear
4:13 AM 26.6 °F - 26.6 °F 100% 30.26 in 10.0 mi Calm Calm - N/A   Clear
4:33 AM 26.6 °F - 26.6 °F 100% 30.26 in 7.0 mi Calm Calm - N/A   Clear
4:54 AM 26.6 °F - 26.6 °F 100% 30.27 in 7.0 mi Calm Calm - N/A   Clear
5:13 AM 24.8 °F - 24.8 °F 100% 30.27 in 5.0 mi Calm Calm - N/A   Clear
5:34 AM 26.6 °F - 26.6 °F 100% 30.26 in 7.0 mi Calm Calm - N/A   Clear
5:53 AM 26.6 °F - 26.6 °F 100% 30.26 in 5.0 mi Calm Calm - N/A   Clear
6:13 AM 26.6 °F - 26.6 °F 100% 30.25 in 5.0 mi Calm Calm - N/A   Clear
6:33 AM 26.6 °F - 26.6 °F 100% 30.27 in 10.0 mi Calm Calm - N/A   Clear
6:53 AM 26.6 °F - 26.6 °F 100% 30.25 in 7.0 mi Calm Calm - N/A   Clear
7:13 AM 26.6 °F - 26.6 °F 100% 30.25 in 7.0 mi Calm Calm - N/A   Clear
7:34 AM 26.6 °F - 26.6 °F 100% 30.26 in 5.0 mi Calm Calm - N/A   Clear
7:53 AM 28.4 °F - 28.4 °F 100% 30.26 in 5.0 mi Calm Calm - N/A   Clear
8:13 AM 28.4 °F - 28.4 °F 100% 30.26 in 7.0 mi Calm Calm - N/A   Clear
8:33 AM 30.2 °F - 30.2 °F 100% 30.26 in 7.0 mi Calm Calm - N/A   Clear
8:54 AM 32.0 °F 28.7 °F 32.0 °F 100% 30.25 in 7.0 mi SSW 3.5 mph - N/A   Clear
9:14 AM 35.6 °F 30.7 °F 35.6 °F 100% 30.26 in 7.0 mi SSW 5.8 mph - N/A   Clear
9:34 AM 37.4 °F 31.4 °F 35.6 °F 93% 30.25 in 7.0 mi South 8.1 mph - N/A   Clear
9:54 AM 39.2 °F 33.6 °F 35.6 °F 87% 30.24 in 10.0 mi South 8.1 mph - N/A   Clear
10:14 AM 39.2 °F 32.5 °F 33.8 °F 81% 30.24 in 10.0 mi South 10.4 mph - N/A   Clear
10:53 AM 42.8 °F 38.0 °F 33.8 °F 70% 30.23 in 10.0 mi South 8.1 mph - N/A   Clear
11:13 AM 42.8 °F 36.2 °F 32.0 °F 66% 30.22 in 10.0 mi SSW 12.7 mph 17.3 mph N/A   Clear
11:32 AM 44.6 °F 38.4 °F 32.0 °F 61% 30.21 in - South 12.7 mph - N/A   Clear
11:53 AM 46.4 °F 40.7 °F 30.2 °F 53% 30.21 in 10.0 mi SSW 12.7 mph 18.4 mph N/A   Unknown
12:13 PM 46.4 °F 40.4 °F 30.2 °F 53% 30.20 in 10.0 mi SSW 13.8 mph 17.3 mph N/A   Scattered Clouds
12:34 PM 46.4 °F 40.7 °F 30.2 °F 53% 30.18 in 10.0 mi SSW 12.7 mph - N/A   Scattered Clouds
12:53 PM 44.6 °F 37.8 °F 30.2 °F 57% 30.17 in 10.0 mi SW 15.0 mph - N/A   Scattered Clouds
1:13 PM 46.4 °F 40.1 °F 30.2 °F 53% 30.14 in 10.0 mi SW 15.0 mph 19.6 mph N/A   Scattered Clouds
1:33 PM 46.4 °F 39.5 °F 30.2 °F 53% 30.12 in 10.0 mi SSW 17.3 mph 20.7 mph N/A   Clear
2:00 PM 46.4 °F 39.0 °F 30.2 °F 53% 30.11 in 10.0 mi SSW 19.6 mph - N/A   Scattered Clouds
2:14 PM 46.4 °F 39.5 °F 32.0 °F 57% 30.11 in 10.0 mi SSW 17.3 mph 23.0 mph N/A   Scattered Clouds
2:33 PM 44.6 °F 36.9 °F 33.8 °F 66% 30.10 in 10.0 mi SSW 18.4 mph 25.3 mph N/A   Mostly Cloudy
2:53 PM 44.6 °F 37.4 °F 32.0 °F 61% 30.09 in 7.0 mi SSW 16.1 mph 26.5 mph N/A   Overcast
3:14 PM 44.6 °F 37.8 °F 32.0 °F 61% 30.09 in 10.0 mi SSW 15.0 mph 24.2 mph N/A   Mostly Cloudy
3:33 PM 42.8 °F 35.4 °F 32.0 °F 66% 30.09 in 10.0 mi SW 15.0 mph 25.3 mph N/A   Mostly Cloudy
3:53 PM 42.8 °F 35.4 °F 32.0 °F 66% 30.08 in 10.0 mi SSW 15.0 mph 21.9 mph N/A   Mostly Cloudy
4:14 PM 42.8 °F 36.6 °F 32.0 °F 66% 30.07 in 7.0 mi SSW 11.5 mph 19.6 mph N/A   Overcast
4:33 PM 42.8 °F 36.2 °F 32.0 °F 66% 30.06 in 7.0 mi SSW 12.7 mph 19.6 mph N/A   Overcast
4:53 PM 42.8 °F 36.6 °F 33.8 °F 70% 30.06 in 7.0 mi SSW 11.5 mph 17.3 mph N/A   Overcast
5:14 PM 42.8 °F 35.8 °F 33.8 °F 70% 30.05 in 7.0 mi SSW 13.8 mph 18.4 mph N/A   Overcast
5:33 PM 42.8 °F 37.0 °F 33.8 °F 70% 30.04 in 7.0 mi SSW 10.4 mph - N/A   Overcast
5:53 PM 42.8 °F 36.6 °F 33.8 °F 70% 30.04 in 7.0 mi SSW 11.5 mph - N/A   Mostly Cloudy
6:13 PM 42.8 °F 37.5 °F 33.8 °F 70% 30.05 in 7.0 mi SSW 9.2 mph 18.4 mph N/A   Mostly Cloudy
6:34 PM 42.8 °F 37.0 °F 33.8 °F 70% 30.04 in 7.0 mi SSW 10.4 mph 16.1 mph N/A   Scattered Clouds
6:53 PM 42.8 °F 37.0 °F 33.8 °F 70% 30.05 in 7.0 mi SW 10.4 mph 18.4 mph N/A   Scattered Clouds
7:14 PM 42.8 °F 36.2 °F 35.6 °F 76% 30.04 in 7.0 mi SSW 12.7 mph 21.9 mph N/A   Scattered Clouds
7:34 PM 42.8 °F 37.0 °F 35.6 °F 76% 30.05 in 7.0 mi SW 10.4 mph - N/A   Scattered Clouds
7:53 PM 42.8 °F 36.2 °F 35.6 °F 76% 30.05 in 7.0 mi SW 12.7 mph 16.1 mph N/A   Mostly Cloudy
8:13 PM 42.8 °F 37.5 °F 35.6 °F 76% 30.06 in 7.0 mi SW 9.2 mph - N/A   Overcast
8:33 PM 42.8 °F 38.0 °F 35.6 °F 76% 30.06 in 7.0 mi SW 8.1 mph - N/A   Overcast
8:54 PM 42.8 °F 36.6 °F 37.4 °F 81% 30.06 in 7.0 mi SW 11.5 mph - N/A   Overcast
9:13 PM 42.8 °F 37.0 °F 37.4 °F 81% 30.06 in 7.0 mi SW 10.4 mph 17.3 mph N/A   Overcast
9:33 PM 42.8 °F 35.8 °F 37.4 °F 81% 30.06 in 7.0 mi SW 13.8 mph 18.4 mph N/A   Overcast
9:54 PM 42.8 °F 35.8 °F 37.4 °F 81% 30.05 in 7.0 mi SW 13.8 mph - N/A   Overcast
10:13 PM 42.8 °F 36.2 °F 37.4 °F 81% 30.05 in 7.0 mi SW 12.7 mph - N/A   Overcast
10:33 PM 42.8 °F 35.4 °F 37.4 °F 81% 30.05 in 7.0 mi SW 15.0 mph 19.6 mph N/A   Overcast
10:54 PM 42.8 °F 36.2 °F 37.4 °F 81% 30.06 in 7.0 mi SW 12.7 mph - N/A   Overcast
11:13 PM 42.8 °F 36.6 °F 37.4 °F 81% 30.06 in 7.0 mi SW 11.5 mph - N/A   Overcast
11:33 PM 42.8 °F 35.4 °F 37.4 °F 81% 30.05 in 7.0 mi WSW 15.0 mph 19.6 mph N/A   Overcast
11:53 PM 42.8 °F 35.4 °F 37.4 °F 81% 30.06 in 7.0 mi WSW 15.0 mph 19.6 mph N/A   Overcast